Location: Morisset
(33.1080°S, 151.4871°E)
Time: 13:04:05
(UTC+00:00)

Atlas Centaur 2 - Pass Details

Date: 29 October 2020
Orbit: 459 x 1309 km, 30.4° (Epoch: 23 November)

Event Time Altitude Azimuth Distance (km) Brightness Sun altitude
Exits shadow 18:05:51 12° 323° (NW) 1,804 3.4 -10.8°
Maximum altitude 18:09:08 26° 17° (NNE) 1,073 2.7 -10.2°
Drops below altitude 10° 18:12:20 10° 75° (ENE) 1,680 4.6 -9.6°
Sets 18:14:39 0° 88° (E) 2,513 6.0 -9.1°
